San Jose, CA

2:53 AM PDT on March 26, 2017 (GMT -0700)
San Jose International

Weather History for KSJC - November, 2012

Change the Weather History Date:

Thursday, November 8, 2012

  Actual Average Record
Temperature  
Mean Temperature 54 °F 57 °F  
Max Temperature 62 °F 67 °F 84 °F (1955)
Min Temperature 45 °F 48 °F 34 °F (1895)
Degree Days  
Heating Degree Days 11 8  
Month to date heating degree days 30 56  
Since 1 July heating degree days 58 166  
Cooling Degree Days 0 0  
Month to date cooling degree days 4 0  
Year to date cooling degree days 483 636  
Growing Degree Days 3 (Base 50)    
Moisture  
Dew Point 43 °F    
Average Humidity 64    
Maximum Humidity 86    
Minimum Humidity 42    
Precipitation  
Precipitation T in 0.05 in 1.47 in (2002)
Month to date precipitation 0.14 0.36  
Year to date precipitation 6.04 11.89  
Since 1 July precipitation 0.50  
Sea Level Pressure  
Sea Level Pressure 29.95 in    
Wind  
Wind Speed 7 mph (WSW)    
Max Wind Speed 16 mph    
Max Gust Speed 21 mph    
Visibility 10 miles    
Events Rain    
T = Trace of Precipitation, MM = Missing Value Source: NWS Daily Summary

Daily Weather History Graph

Daily Weather History Graph

Search for Another Location

Airport or City:

Trip Planner

Search our weather history database for the weather conditions in past years. The results will help you decide how hot, cold, wet, or windy it might be!

Date:

Astronomy

Nov. 08, 2012 Rise Set
Actual Time 6:40 AM PST 5:02 PM PST
Civil Twilight 6:12 AM PST 5:29 PM PST
Nautical Twilight 5:41 AM PST 6:00 PM PST
Astronomical Twilight 5:10 AM PST 6:31 PM PST
Moon 12:48 AM PST (11/8) 1:39 PM PST (11/8)
Length of Visible Light 11h 16m
Length of Day
10h 22m
Waning Crescent, 32% of the Moon is Illuminated
Nov 8
Waning Crescent
Nov 13
New
Nov 20
First Quarter
Nov 28
Full
Dec 6
Last Quarter

Hourly Weather History & Observations

Time (PST) Temp. Windchill Dew Point Humidity Pressure Visibility Wind Dir Wind Speed Gust Speed Precip Events Conditions
12:31 AM 55.4 °F - 46.4 °F 72% 29.97 in 10.0 mi West 9.2 mph - N/A   Overcast
12:53 AM 55.0 °F - 46.9 °F 74% 29.96 in 10.0 mi West 4.6 mph - N/A   Overcast
1:53 AM 55.0 °F - 46.9 °F 74% 29.96 in 10.0 mi West 9.2 mph - N/A   Overcast
2:53 AM 54.0 °F - 46.0 °F 75% 29.96 in 10.0 mi West 10.4 mph - N/A   Overcast
3:53 AM 54.0 °F - 43.0 °F 66% 29.96 in 10.0 mi West 9.2 mph - N/A   Mostly Cloudy
4:53 AM 54.0 °F - 42.1 °F 64% 29.97 in 10.0 mi WNW 3.5 mph - N/A   Overcast
5:53 AM 54.0 °F - 44.1 °F 69% 29.98 in 10.0 mi West 10.4 mph - N/A   Overcast
6:53 AM 54.0 °F - 43.0 °F 66% 29.99 in 10.0 mi West 3.5 mph - N/A   Overcast
7:53 AM 55.0 °F - 39.9 °F 57% 29.99 in 10.0 mi SSW 3.5 mph - N/A   Overcast
8:53 AM 57.0 °F - 39.9 °F 53% 29.99 in 10.0 mi South 4.6 mph - N/A   Clear
9:53 AM 59.0 °F - 37.9 °F 46% 29.98 in 10.0 mi WSW 5.8 mph - N/A   Mostly Cloudy
10:53 AM 59.0 °F - 39.0 °F 48% 29.99 in 10.0 mi WSW 9.2 mph - N/A   Overcast
11:53 AM 60.1 °F - 41.0 °F 49% 29.96 in 10.0 mi WSW 4.6 mph - N/A   Mostly Cloudy
12:53 PM 60.1 °F - 37.9 °F 44% 29.93 in 10.0 mi Calm Calm - N/A   Overcast
1:53 PM 57.9 °F - 43.0 °F 58% 29.92 in 10.0 mi SW 12.7 mph - 0.00 in Rain Light Rain
2:53 PM 55.9 °F - 46.0 °F 69% 29.92 in 10.0 mi West 15.0 mph - 0.00 in Rain Light Rain
3:53 PM 55.0 °F - 46.0 °F 72% 29.92 in 10.0 mi WNW 12.7 mph - 0.00 in   Overcast
4:53 PM 53.1 °F - 43.0 °F 69% 29.92 in 10.0 mi West 11.5 mph - 0.00 in Rain Light Rain
5:53 PM 53.1 °F - 41.0 °F 64% 29.92 in 10.0 mi WSW 5.8 mph - 0.00 in   Mostly Cloudy
6:53 PM 52.0 °F - 42.1 °F 69% 29.92 in 10.0 mi WSW 6.9 mph - 0.00 in   Mostly Cloudy
7:53 PM 50.0 °F - 41.0 °F 71% 29.93 in 10.0 mi WSW 5.8 mph - N/A   Clear
8:53 PM 50.0 °F - 41.0 °F 71% 29.93 in 10.0 mi SW 4.6 mph - N/A   Clear
9:53 PM 46.9 °F - 42.1 °F 83% 29.94 in 10.0 mi ESE 5.8 mph - N/A   Clear
10:53 PM 46.0 °F 43.1 °F 42.1 °F 86% 29.94 in 10.0 mi ESE 5.8 mph - N/A   Clear
11:53 PM 46.0 °F 43.1 °F 42.1 °F 86% 29.94 in 10.0 mi ESE 5.8 mph - N/A   Partly Cloudy